FW2602 Weather Reports


Display with metric or nautical units.
time (UTC)temp
F
wind
direction
speed
MPH
gust
MPH
rain 1hr
in
rain 24hr
in
rain mn
in
humidity
%
barometer
mb
20260504231508 67 266 5.0 8.0 0.00 0.00 0.00 40 1005.7
20260504231013 67 288 5.0 10.0 0.00 0.00 0.00 39 1005.6
20260504230525 67 316 4.0 10.0 0.00 0.00 0.00 39 1005.6
20260504230013 67 274 5.0 11.0 0.00 0.00 0.00 38 1005.5
20260504225525 67 253 3.0 22.0 0.00 0.00 0.00 39 1005.5
20260504225008 67 288 9.0 22.0 0.00 0.00 0.00 38 1005.5
20260504224522 68 274 3.0 11.0 0.00 0.00 0.00 40 1005.5
20260504224006 68 294 6.0 11.0 0.00 0.00 0.00 39 1005.5
20260504223516 67 268 5.0 12.0 0.00 0.00 0.00 38 1005.6
20260504223016 67 295 3.0 11.0 0.00 0.00 0.00 39 1005.6
20260504222507 68 300 4.0 13.0 0.00 0.00 0.00 39 1005.5
20260504222015 68 290 5.0 13.0 0.00 0.00 0.00 38 1005.4
20260504221539 68 294 5.0 13.0 0.00 0.00 0.00 40 1005.5
20260504221012 68 278 6.0 11.0 0.00 0.00 0.00 39 1005.4
20260504220526 68 297 5.0 13.0 0.00 0.00 0.00 38 1005.4
20260504220010 68 280 6.0 13.0 0.00 0.00 0.00 40 1005.4
20260504215522 68 274 8.0 15.0 0.00 0.00 0.00 38 1005.6
20260504215011 68 243 8.0 15.0 0.00 0.00 0.00 37 1005.5
20260504214521 68 281 8.0 18.0 0.00 0.00 0.00 38 1005.4
20260504214012 68 285 9.0 18.0 0.00 0.00 0.00 37 1005.5
20260504213524 68 294 8.0 18.0 0.00 0.00 0.00 40 1005.6
20260504213012 67 315 10.0 18.0 0.00 0.00 0.00 37 1005.6
20260504212523 67 287 8.0 16.0 0.00 0.00 0.00 39 1005.7
20260504212010 67 280 6.0 16.0 0.00 0.00 0.00 39 1005.8
20260504211525 67 283 9.0 16.0 0.00 0.00 0.00 40 1005.7
20260504211011 67 312 6.0 17.0 0.00 0.00 0.00 41 1005.7
20260504210524 68 277 7.0 18.0 0.00 0.00 0.00 41 1005.8
20260504210012 68 304 8.0 17.0 0.00 0.00 0.00 39 1005.8
20260504205524 67 300 9.0 15.0 0.00 0.00 0.00 40 1005.8
20260504205009 67 300 8.0 16.0 0.00 0.00 0.00 43 1005.8
20260504204528 67 298 9.0 16.0 0.00 0.00 0.00 40 1006.0
20260504204007 67 307 7.0 19.0 0.00 0.00 0.00 40 1006.1
20260504203522 66 276 11.0 19.0 0.00 0.00 0.00 45 1006.0
20260504203003 66 243 7.0 15.0 0.00 0.00 0.00 41 1006.1
20260504202516 66 269 9.0 17.0 0.00 0.00 0.00 43 1006.2
20260504202012 65 284 10.0 21.0 0.00 0.00 0.00 42 1006.1
20260504201524 65 293 9.0 21.0 0.00 0.00 0.00 43 1006.1
20260504201008 65 301 9.0 17.0 0.00 0.00 0.00 43 1006.2
20260504200521 65 283 7.0 17.0 0.00 0.00 0.00 44 1006.3
20260504200021 64 294 4.0 15.0 0.00 0.00 0.00 44 1006.3
20260504195511 64 283 5.0 15.0 0.00 0.00 0.00 45 1006.4
20260504195017 65 274 6.0 16.0 0.00 0.00 0.00 42 1006.4
20260504194530 65 291 8.0 19.0 0.00 0.00 0.00 43 1006.5
20260504194009 64 291 12.0 19.0 0.00 0.00 0.00 44 1006.6
20260504193517 65 291 9.0 15.0 0.00 0.00 0.00 43 1006.7
20260504193021 65 290 8.0 21.0 0.00 0.00 0.00 44 1006.8
20260504192510 65 288 12.0 21.0 0.00 0.00 0.00 45 1006.7
20260504192016 64 276 8.0 18.0 0.00 0.00 0.00 44 1006.7
20260504191504 64 308 9.0 18.0 0.00 0.00 0.00 44 1006.7
20260504191010 64 290 9.0 16.0 0.00 0.00 0.00 45 1006.9
20260504190520 64 298 10.0 0.0 0.00 0.00 0.00 45 1006.8
20260504190011 64 290 12.0 19.0 0.00 0.00 0.00 46 1007.0
20260504185521 64 301 9.0 18.0 0.00 0.00 0.00 45 1006.9
20260504185008 64 288 10.0 18.0 0.00 0.00 0.00 44 1007.0
20260504184519 64 289 9.0 15.0 0.00 0.00 0.00 45 1006.9
20260504184020 64 295 8.0 19.0 0.00 0.00 0.00 43 1006.9
20260504183511 64 276 10.0 19.0 0.00 0.00 0.00 45 1007.1
20260504183017 64 277 11.0 20.0 0.00 0.00 0.00 47 1007.1
20260504182529 64 271 12.0 20.0 0.00 0.00 0.00 44 1007.1
20260504182017 64 293 11.0 20.0 0.00 0.00 0.00 46 1007.1
20260504181525 63 288 8.0 19.0 0.00 0.00 0.00 45 1007.0
20260504181009 63 283 10.0 19.0 0.00 0.00 0.00 47 1007.2
20260504180518 63 291 11.0 19.0 0.00 0.00 0.00 46 1007.2
20260504180021 63 277 9.0 17.0 0.00 0.00 0.00 48 1007.2
20260504175511 62 285 10.0 23.0 0.00 0.00 0.00 46 1007.1
20260504175117 63 301 11.0 27.0 0.00 0.00 0.00 46 1007.2
20260504174527 63 280 15.0 26.0 0.00 0.00 0.00 48 1007.3
20260504174011 63 255 10.0 19.0 0.00 0.00 0.00 52 1007.2
20260504173521 62 267 7.0 16.0 0.00 0.00 0.00 47 1007.2
20260504173007 62 293 8.0 17.0 0.00 0.00 0.00 51 1007.3
20260504172518 62 298 9.0 27.0 0.00 0.00 0.00 48 1007.6
20260504172022 62 301 15.0 27.0 0.00 0.00 0.00 47 1007.5
20260504171513 62 293 12.0 21.0 0.00 0.00 0.00 48 1007.5
20260504171015 62 276 9.0 22.0 0.00 0.00 0.00 47 1007.4
20260504170524 62 290 11.0 22.0 0.00 0.00 0.00 50 1007.6
20260504151019 56 289 13.0 19.0 0.00 0.00 0.00 50 1008.7
20260504150512 57 291 9.0 21.0 0.00 0.00 0.00 50 1008.7
20260504141018 55 262 11.0 24.0 0.00 0.00 0.00 53 1009.0
20260504140524 54 274 11.0 22.0 0.00 0.00 0.00 52 1009.0
20260504130526 52 301 10.0 22.0 0.00 0.00 0.00 52 1009.5
20260504110534 48 310 9.0 17.0 0.00 0.00 0.00 56 1009.7
20260504100528 48 287 5.0 18.0 0.00 0.00 0.00 56 1009.5
20260504081513 48 277 14.0 20.0 0.00 0.00 0.00 55 1009.8
20260504081020 48 298 13.0 20.0 0.00 0.00 0.00 56 1009.8
20260504080511 48 277 10.0 22.0 0.00 0.00 0.00 56 1009.8
20260504050542 45 306 0.0 4.0 0.00 0.00 0.00 69 1010.3
20260504045540 44 276 0.0 3.0 0.00 0.00 0.00 71 1010.3
20260504045039 44 86 0.0 3.0 0.00 0.00 0.00 73 1010.3
20260504044540 44 102 0.0 3.0 0.00 0.00 0.00 73 1010.3
20260504044037 44 84 0.0 1.0 0.00 0.00 0.00 72 1010.5
20260504043536 45 84 0.0 2.0 0.00 0.00 0.00 70 1010.6
20260504043036 45 82 0.0 2.0 0.00 0.00 0.00 68 1010.8
20260504042534 45 316 0.0 1.0 0.00 0.00 0.00 67 1011.0
20260504042032 45 316 0.0 3.0 0.00 0.00 0.00 67 1011.0
20260504041532 45 316 0.0 3.0 0.00 0.00 0.00 67 1011.0
20260504041031 45 316 0.0 2.0 0.00 0.00 0.00 67 1011.0
20260504040533 45 316 0.0 4.0 0.00 0.00 0.00 66 1011.0
20260504040048 45 303 1.0 4.0 0.00 0.00 0.00 66 1011.0
20260504035530 45 290 1.0 5.0 0.00 0.00 0.00 65 1011.0
20260504035029 46 304 0.0 7.0 0.00 0.00 0.00 65 1011.1
20260504034530 46 253 3.0 9.0 0.00 0.00 0.00 63 1011.1
20260504034030 46 284 5.0 11.0 0.00 0.00 0.00 63 1011.0
20260504033529 47 340 5.0 16.0 0.00 0.00 0.00 62 1011.1
20260504033028 47 294 10.0 16.0 0.00 0.00 0.00 61 1011.1
20260504032532 47 269 6.0 13.0 0.00 0.00 0.00 60 1011.1
20260504032032 47 310 5.0 13.0 0.00 0.00 0.00 60 1011.1
20260504031528 47 272 7.0 14.0 0.00 0.00 0.00 60 1011.0
20260504031027 47 276 7.0 14.0 0.00 0.00 0.00 59 1011.0
20260504030528 47 311 6.0 11.0 0.00 0.00 0.00 59 1011.0
20260504030027 46 286 4.0 7.0 0.00 0.00 0.00 59 1011.0
20260504025528 46 253 3.0 7.0 0.00 0.00 0.00 59 1011.0
20260504025027 46 260 3.0 7.0 0.00 0.00 0.00 60 1010.9
20260504024527 46 287 2.0 6.0 0.00 0.00 0.00 60 1010.9
20260504024030 45 269 1.0 4.0 0.00 0.00 0.00 61 1010.9
20260504023526 45 254 0.0 3.0 0.00 0.00 0.00 62 1010.9
20260504023025 45 290 1.0 4.0 0.00 0.00 0.00 63 1010.8
20260504022525 44 276 1.0 4.0 0.00 0.00 0.00 64 1010.8
20260504022025 44 256 0.0 1.0 0.00 0.00 0.00 65 1010.8
20260504021525 43 256 0.0 1.0 0.00 0.00 0.00 65 1010.8
20260504021026 43 257 0.0 2.0 0.00 0.00 0.00 66 1010.9
20260504020524 43 256 0.0 1.0 0.00 0.00 0.00 66 1010.8
20260504020024 43 255 0.0 0.0 0.00 0.00 0.00 66 1010.8
20260504015524 43 255 0.0 2.0 0.00 0.00 0.00 66 1010.8
20260504015024 43 250 0.0 3.0 0.00 0.00 0.00 66 1010.8
20260504014526 43 294 0.0 3.0 0.00 0.00 0.00 67 1010.8
20260504014023 43 12 0.0 2.0 0.00 0.00 0.00 67 1010.9
20260504013523 43 297 0.0 0.0 0.00 0.00 0.00 67 1010.9
20260504013022 43 297 0.0 0.0 0.00 0.00 0.00 66 1010.9
20260504012525 43 297 0.0 0.0 0.00 0.00 0.00 65 1010.9
20260504012022 44 297 0.0 1.0 0.00 0.00 0.00 64 1010.9
20260504011522 44 280 0.0 1.0 0.00 0.00 0.00 65 1010.9
20260504011021 43 291 0.0 1.0 0.00 0.00 0.00 66 1010.8
20260504010521 43 292 0.0 1.0 0.00 0.00 0.00 66 1010.7
20260504010005 43 292 0.0 1.0 0.00 0.00 0.00 66 1010.7
20260504005516 44 292 0.0 0.0 0.00 0.00 0.00 65 1010.6
20260504005015 44 292 0.0 1.0 0.00 0.00 0.00 64 1010.5
20260504004538 44 290 0.0 2.0 0.00 0.00 0.00 63 1010.6
20260504004011 45 290 0.0 2.0 0.00 0.00 0.00 61 1010.5
20260504003522 46 292 0.0 2.0 0.00 0.00 0.00 60 1010.5
20260504003010 46 284 0.0 2.0 0.00 0.00 0.00 60 1010.5
20260504002519 46 309 0.0 3.0 0.00 0.00 0.00 59 1010.4
20260504002005 46 297 0.0 4.0 0.00 0.00 0.00 59 1010.4
20260504001517 46 303 2.0 7.0 0.00 0.00 0.00 58 1010.4
20260504001017 47 297 3.0 8.0 0.00 0.00 0.00 58 1010.3
20260504000510 47 295 3.0 8.0 0.00 0.00 0.00 58 1010.3
20260504000016 47 295 4.0 9.0 0.00 0.00 0.00 57 1010.3
20260503235528 47 294 4.0 10.0 0.00 0.00 0.00 57 1010.2
20260503235016 47 290 5.0 10.0 0.00 0.00 0.00 57 1010.3
20260503234507 47 302 3.0 12.0 0.00 0.00 0.00 56 1010.2
20260503234010 48 290 7.0 15.0 0.00 0.00 0.00 55 1010.2
20260503233521 48 290 6.0 15.0 0.00 0.00 0.00 55 1010.2
20260503233008 48 317 4.0 14.0 0.00 0.00 0.00 55 1010.2
20260503232518 48 288 7.0 22.0 0.00 0.00 0.00 54 1010.1
20260503232005 48 283 7.0 22.0 0.00 0.00 0.00 54 1010.2